Regional Weather Roundup
Issued by NWS Little Rock, AR

Home | Current Version | Previous Version | Text Only | Print | Product List | Glossary Off
Versions: 1 2 3 4 5 6 7 8 9 10 11 12 13 14 15 16 17 18 19 20 21 22 23 24 25 26 27 28 29 30 31 32 33 34 35 36 37 38 39 40 41 42 43 44 45 46 47 48 49 50

000
ASUS44 KLZK 232205
RWRLZK

WEATHER ROUNDUP FOR ARKANSAS
NATIONAL WEATHER SERVICE LITTLE ROCK AR
500 PM CDT FRI JUN 23 2017

NOTE: "FAIR" INDICATES FEW OR NO CLOUDS BELOW 12,000 FEET WITH NO
SIGNIFICANT WEATHER AND/OR OBSTRUCTIONS TO VISIBILITY.

ARZ001-003-010-029-232300-
NORTHWEST ARKANSAS

CITY           SKY/WX    TMP DP  RH WIND       PRES   REMARKS
FAYETTEVILLE   CLOUDY    74  70  87 E7        29.90S
FORT SMITH     CLOUDY    83  75  77 N13       29.84R HX  90
HARRISON       CLOUDY    68  68 100 VRB3      29.91R
BENTONVILLE    MOSUNNY   79  68  69 NE12G18   29.92R
ROGERS         PTSUNNY   78  68  71 N14       29.92R
SILOAM SPGS    MOSUNNY   81  66  61 NE10G18   29.89F
HIGHFILL       MOSUNNY   82  69  64 NE13      29.91R HX  85
SPRINGDALE     CLOUDY    75  70  83 NE8G16    29.93R
$$

ARZ004-005-016-232300-
NORTH CENTRAL ARKANSAS

CITY           SKY/WX    TMP DP  RH WIND       PRES   REMARKS
BATESVILLE     CLOUDY    70  66  88 SW6       29.86S
FLIPPIN        CLOUDY    72  64  78 W7        29.87R
MTN HOME       CLOUDY    69  69 100 VRB3      29.88R
$$

ARZ040-041-232300-
WEST CENTRAL ARKANSAS

CITY           SKY/WX    TMP DP  RH WIND       PRES   REMARKS
MENA           MOSUNNY   91  79  66 W6        29.85R HX 107
MOUNT IDA      MOSUNNY   93  72  50 CALM      29.81R HX 101
$$

ARZ009-017-025-026-028-232300-
NORTHEAST ARKANSAS

CITY           SKY/WX    TMP DP  RH WIND       PRES   REMARKS
JONESBORO      LGT RAIN  73  69  87 NW24G40   29.82R
WALNUT RIDGE   CLOUDY    72  64  78 NE12      29.85R
BLYTHEVILLE    PTSUNNY   86  78  77 W8        29.77R HX  98
$$

ARZ022-023-033-042-044-232300-
CENTRAL ARKANSAS

CITY           SKY/WX    TMP DP  RH WIND       PRES   REMARKS
LITTLE ROCK    CLOUDY    86  77  74 N20G38    29.84R THUNDER HX  97
N LITTLE ROCK    N/A     72  68  89 N8G33     29.89R
JACKSONVILLE   HVY RAIN  74  70  87 N15G28    29.88R FOG
CONWAY         FOG       72  70  94 N15G29    29.88R VSB 1/4
SEARCY         HVY RAIN  70  69  97 N6        29.90R
HOT SPRINGS    PTSUNNY   91  76  61 SW6       29.82R HX 103
RUSSELLVILLE   HVY RAIN  71  70  96 SW5       29.90R FOG
CLINTON        RAIN      72  70  94 CALM      29.86F
$$

ARZ036-232300-
EAST ARKANSAS

CITY           SKY/WX    TMP DP  RH WIND       PRES   REMARKS
WEST MEMPHIS   PTSUNNY   83  79  88 VRB6      29.79R HX  94
$$

ARZ050-053-066-070-073-232300-
SOUTHWEST ARKANSAS

CITY           SKY/WX    TMP DP  RH WIND       PRES   REMARKS
ARKADELPHIA    FAIR      91  79  67 SW7       29.81R HX 107
CAMDEN         CLOUDY    86  75  70 S7        29.82S HX  95
TEXARKANA      MOSUNNY   91  76  61 VRB7      29.81F HX 103
EL DORADO      CLOUDY    87  79  76 SW6       29.84S HX 101
DE QUEEN       CLOUDY    93  77  59 S6        29.78S HX 107
$$

ARZ056-057-069-232300-
SOUTHEAST ARKANSAS

CITY           SKY/WX    TMP DP  RH WIND       PRES   REMARKS
PINE BLUFF     CLOUDY    86  78  77 SW7       29.83R HX  98
STUTTGART      CLOUDY   N/A N/A N/A W7        29.83R
MONTICELLO     PTSUNNY   84  77  79 SW9       29.83F HX  94

$$





USA.gov is the U.S. government's official web portal to all federal, state and local government web resources and services.